Regional Weather Roundup
Issued by NWS

Home | Current Version | Previous Version | Graphics & Text | Print | Product List | Glossary On
Versions: 1 2 3 4 5 6 7 8 9 10 11 12 13 14 15 16 17 18 19 20 21 22 23 24 25 26 27 28 29 30 31 32 33 34 35 36 37 38 39 40 41 42 43 44 45 46 47 48 49 50
000
ASUS43 KFSD 050010
RWRSD

WEATHER ROUNDUP FOR SOUTH DAKOTA
NATIONAL WEATHER SERVICE SIOUX FALLS SD
600 PM CST SUN DEC 04 2016

NOTE: "FAIR" INDICATES FEW OR NO CLOUDS BELOW 12,000 FEET WITH NO
SIGNIFICANT WEATHER AND/OR OBSTRUCTIONS TO VISIBILITY.


SDZ001>005-009-010-012>017-050100-
NORTHWEST AND NORTH CENTRAL SOUTH DAKOTA

CITY           SKY/WX    TMP DP  RH WIND       PRES   REMARKS
BUFFALO          N/A     36  23  59 S6        29.56F
FAITH            N/A     30  24  78 S10       29.67F WCI  21
MOBRIDGE       CLEAR     29  23  78 SE5       29.69F WCI  24
$$

SDZ012>016-024>037-041>051-057-063-072>074-050100-
SOUTHWEST AND SOUTH CENTRAL SOUTH DAKOTA

CITY           SKY/WX    TMP DP  RH WIND       PRES   REMARKS
RAPID CTY ARPT CLOUDY    35  13  40 SW3       29.66F
PIERRE         CLEAR     31  24  75 SE3       29.73F
CUSTER         CLOUDY    30  14  51 CALM      29.64F
ELLSWORTH AFB  CLOUDY    35  18  51 SW6       29.64F WCI  29
PHILIP         CLOUDY    38  24  57 SE6       29.70F
PINE RIDGE     CLOUDY    35  23  61 CALM      29.69F
SPEARFISH      FAIR      37  16  41 VRB3      29.63F
WINNER         FAIR      35  25  66 S9        29.77F WCI  28
$$

SDZ004>011-016>023-039-040-050100-
NORTHEAST SOUTH DAKOTA

CITY           SKY/WX    TMP DP  RH WIND       PRES   REMARKS
ABERDEEN       CLEAR     29  25  85 SW8       29.75S WCI  21
WATERTOWN      CLEAR     30  28  92 SW7       29.74F WCI  23
BROOKINGS      CLEAR     32  29  88 S8        29.77S WCI  25
SISSETON         N/A     34  29  82 W5        29.72S WCI  30
$$

SDZ017-020-022-023-036>040-048>070-050100-
SOUTHEAST SOUTH DAKOTA

CITY           SKY/WX    TMP DP  RH WIND       PRES   REMARKS
SIOUX FALLS    PTCLDY    37  31  78 W5        29.80F
HURON          CLEAR     34  29  82 SW6       29.78S WCI  29
CHAMBERLAIN    CLEAR     34  29  83 S3        29.78S
MITCHELL       CLEAR     35  29  78 SW6       29.81S
YANKTON        CLEAR     39  27  60 CALM      29.82S
$$

ABBREVIATIONS USED IN REMARKS
   TC - TEMPERATURE IN CELSIUS
  WCI - WIND CHILL INDEX
   HX - HEAT INDEX
  VSB - VISIBILITY





USA.gov is the U.S. government's official web portal to all federal, state and local government web resources and services.